Location: Dobropole Gryfinskie
(53.3022°N, 14.7471°E)
Time: 14:25:41
(UTC+00:00)

Daily predictions for brighter satellites

Satellite Brightness Start Highest point End
(mag) Time Altitude Azimuth Time Altitude Azimuth Time Altitude Azimuth
CZ-2C R/B 4.4 20:10:55 10° NNE 20:15:09 37° E 20:19:17 10° SSE
Cosmos 2344 4.3 20:06:56 10° NW 20:15:30 78° SW 20:27:23 10° SE
Meteor 2-1 Rocket 4.2 20:09:58 10° NNW 20:15:31 86° ENE 20:21:05 10° SSE
Cosmos 1408 3.8 20:15:24 10° SE 20:18:11 23° E 20:20:58 10° NE
Resurs 01 Rocket 3.5 20:14:33 10° SSW 20:18:25 29° W 20:22:19 10° NNW
SJ 16-02 3.3 20:18:10 10° N 20:21:31 20° NE 20:24:51 10° E
COSMOS 2406 3.4 20:16:47 10° S 20:22:21 53° ESE 20:27:56 10° NE
Cosmos 2184 Rocket 4.4 20:16:20 10° NNW 20:22:27 64° W 20:28:35 10° S
H-2A R/B 3.5 20:19:58 10° N 20:24:10 43° WNW 20:28:24 10° SW
Cosmos 1833 Rocket 2.7 20:22:19 10° SSW 20:27:57 86° ESE 20:33:37 10° NNE
Cosmos 1867 3.8 20:23:34 10° NW 20:29:01 68° SW 20:34:26 10° SSE
Cosmos 1703 4.0 20:30:48 10° SSW 20:34:35 54° WNW 20:38:23 10° N
Cosmos 1606 Rocket 3.8 20:30:18 10° NNW 20:34:38 69° W 20:38:56 10° S
Cosmos 1825 3.8 20:33:33 10° SE 20:36:18 20° E 20:39:05 10° NE
USA 245 4.4 20:33:54 10° SSW 20:37:17 33° W 20:40:05 10° NW
Cosmos 2322 Rocket 3.2 20:33:01 10° NNW 20:38:20 39° NE 20:43:38 10° ESE
Cosmos 1869 4.3 20:35:52 10° N 20:39:26 33° ENE 20:42:59 10° SE
CZ-4B R/B 3.6 20:41:33 10° N 20:43:56 23° WNW 20:46:18 10° WSW
GP-B 3.7 20:40:43 10° NNE 20:44:58 42° E 20:49:01 11° SSE
USA 234 3.6 20:39:24 10° E 20:45:56 72° NNE 20:52:29 10° WNW
ARIANE 5 R/B 2.7 20:44:22 10° SSE 20:48:48 89° WSW 20:53:14 10° NNW
Terra 2.1 20:44:32 10° S 20:49:17 70° WSW 20:54:04 10° NNW
Cosmos 2278 3.8 20:46:14 10° NNW 20:52:00 83° WSW 20:57:25 12° SSE
SPOT 5 3.5 20:47:57 10° S 20:52:07 44° W 20:56:17 10° NNW
Cosmos 2341 Rocket 4.1 20:46:37 10° N 20:52:59 84° E 20:59:15 10° SSE
USA 276 2.8 20:51:49 10° W 20:54:35 33° SSW 20:56:54 13° SE
FALCON 9 DEB 3.9 20:52:36 10° W 20:55:35 33° SSW 20:58:00 14° SSE
Cosmos 1726 Rocket 4.1 20:52:16 10° NNW 20:56:30 54° W 21:00:43 10° S
Cosmos 2333 Rocket 3.8 20:53:44 10° NNW 20:58:45 29° NE 21:03:44 10° E
Cosmos 1992 Rocket 4.5 20:57:56 10° S 21:02:51 43° ESE 21:07:48 10° NE
Cosmos 1486 Rocket 4.0 20:59:49 10° NNW 21:05:05 89° WSW 21:09:45 13° SSE
Meteor 1-11 4.2 20:59:38 10° S 21:05:12 76° E 21:10:48 10° NNE
Cosmos 2082 Rocket 2.2 21:00:25 10° SSW 21:06:06 76° ESE 21:11:49 10° NE
ASTEX 1 3.6 21:02:02 10° N 21:07:01 63° E 21:11:40 12° S
Cosmos 1633 4.1 21:05:14 13° SE 21:07:18 20° E 21:09:57 10° NE
Okean 1-7 Rocket 4.1 21:03:32 12° SSE 21:07:23 45° E 21:11:42 10° NNE
Helios 1A Rocket 4.4 21:05:53 10° SSW 21:09:33 32° W 21:13:16 10° NNW
TIMED 4.5 21:08:23 10° SSW 21:12:43 74° ESE 21:17:06 10° NNE
Cosmos 2360 Rocket 3.1 21:07:30 10° NNW 21:12:57 44° NE 21:18:20 10° ESE
ADEOS Rocket 4.3 21:06:37 10° SE 21:13:37 45° ENE 21:20:53 10° N
Cosmos-2242 3.9 21:11:04 10° N 21:15:02 37° ENE 21:18:22 14° SE
Cosmos 1812 Rocket 4.2 21:11:10 10° N 21:15:30 47° ENE 21:19:01 15° SE
Cosmos 1606 4.1 21:13:11 10° N 21:16:33 27° ENE 21:19:29 12° SE
Cosmos 1932 4.5 21:13:50 10° SSW 21:19:58 62° SE 21:26:14 10° NE
Cosmos 1821 Rocket 4.4 21:15:25 10° N 21:21:33 53° ENE 21:26:44 14° SSE
Cosmos 2181 Rocket 4.0 21:17:08 10° S 21:23:13 73° E 21:29:30 10° NNE
ERS-1 Rocket 4.5 21:23:19 10° SSW 21:27:42 30° W 21:32:08 10° NNW
Cosmos 1892 2.9 21:26:34 10° SSW 21:30:18 67° WNW 21:34:07 10° N
Cosmos 1602 Rocket 4.0 21:28:28 16° SSE 21:31:35 45° E 21:35:43 10° NNE
Cosmos 1354 Rocket 4.1 21:29:36 10° NNW 21:34:58 84° ENE 21:39:12 16° SSE
Cosmos 2237 4.3 21:29:53 10° NNW 21:35:40 79° ENE 21:40:30 15° SE
Cosmos 1503 Rocket 4.1 21:38:12 10° NNW 21:43:31 73° WSW 21:47:32 17° SSE
Cosmos 1980 Rocket 3.8 21:40:45 10° NW 21:45:13 24° WSW 21:49:40 10° SSW
COSMOS 2428 4.3 21:40:13 10° NNW 21:45:17 31° NE 21:50:21 10° ESE
Spot 4 3.9 21:42:42 17° SSE 21:46:22 74° ENE 21:51:12 10° NNW
ERS-2 4.4 21:45:35 10° ENE 21:47:06 12° E 21:48:35 10° ESE
ALOS 2 3.2 21:44:13 16° SE 21:47:31 49° ENE 21:51:47 10° N
Nadezhda 3 Rocket 4.4 21:43:20 16° SSE 21:48:01 49° E 21:53:55 10° NNE
SL-16 R/B 2.3 21:42:58 10° NW 21:48:38 68° WSW 21:52:57 17° SSE
Cosmos 2219 Rocket 3.3 21:43:23 10° NNW 21:48:43 39° NE 21:54:02 10° ESE
Cosmos 1777 Rocket 4.1 21:43:25 10° NNW 21:48:45 75° ENE 21:52:54 17° SSE
USA 267 3.7 21:46:11 10° ENE 21:52:14 39° SE 21:58:16 10° SSW
Cosmos 1408 4.1 21:49:39 10° SW 21:52:44 30° WNW 21:55:52 10° N
Cosmos 1626 Rocket 3.6 21:50:06 14° SSW 21:53:48 79° W 21:58:12 10° N
H-2A R/B 4.5 21:50:14 10° NNE 21:54:03 32° E 21:56:24 19° SSE
ATLAS 5 CENTAUR R/B 1.2 21:52:23 10° SW 21:56:11 81° SE 22:00:36 10° NE
Cosmos 2058 3.9 21:53:50 18° SE 21:56:17 33° E 22:00:04 10° NNE
SJ 16-02 1.4 21:56:09 10° NNW 22:00:36 75° WSW 22:03:35 20° SSE
SL-4 R/B 2.7 22:04:44 24° SSE 22:05:06 24° SSE 22:08:05 10° E
Cosmos 1825 Rocket 4.1 22:04:05 20° SSE 22:06:43 45° E 22:10:54 10° NNE
Meteor 2-20 4.4 22:03:58 16° S 22:08:54 78° E 22:15:01 10° NNE
Cosmos 1825 3.2 22:08:00 11° SW 22:11:23 42° WNW 22:14:59 10° N
Cosmos 2221 3.5 22:08:14 10° N 22:12:20 38° ENE 22:15:26 16° SE
Cosmos 2322 Rocket 2.6 22:17:04 10° NW 22:22:36 54° WSW 22:26:28 20° S
Terra 4.3 22:26:26 10° WSW 22:27:56 11° W 22:29:27 10° WNW
USA 234 3.3 22:22:30 10° SE 22:29:03 68° SSW 22:35:37 10° WNW
USA 276 4.5 22:28:24 10° WSW 22:28:42 11° SW 22:28:42 11° SW
Cosmos 1934 Rocket 4.0 22:24:06 10° N 22:30:13 81° E 22:34:46 19° SSE
BREEZE-M DEB (TANK) 4.2 22:34:22 10° W 22:37:59 50° S 22:51:49 10° ESE
Meteor 2-20 Rocket 4.4 22:33:21 18° S 22:38:04 90° WSW 22:44:13 10° NNE
Cosmos 1633 3.8 22:39:00 14° SW 22:41:37 34° WNW 22:44:49 10° N
Cosmos 2333 Rocket 2.2 22:37:54 10° NNW 22:43:43 83° WSW 22:48:05 18° SSE
Cosmos 1758 Rocket 4.3 22:42:24 15° SW 22:45:49 49° WNW 22:50:09 10° N
Cosmos 1933 4.2 22:42:37 10° N 22:46:28 43° ENE 22:49:07 18° SE
USA 290 3.3 22:43:32 10° NNW 22:46:38 41° ENE 22:48:53 16° ESE
Cosmos 2082 Rocket 4.1 22:45:46 10° W 22:50:47 30° NW 22:55:47 10° NNE
Cosmos 1812 4.1 22:48:17 10° N 22:51:44 31° ENE 22:54:29 14° SE
Cosmos 1606 3.9 22:48:41 10° NNW 22:52:10 32° W 22:54:21 18° SW
Cosmos-2242 4.4 22:48:49 10° NNW 22:52:26 28° W 22:55:10 15° SW
Cosmos 990 Rocket 4.0 22:48:18 10° NNW 22:53:29 78° ENE 22:57:27 17° SSE
COSMOS 2487 3.4 22:52:54 24° SE 22:53:44 27° ESE 22:56:25 10° NE
Cosmos 2360 Rocket 2.7 22:51:37 10° NW 22:57:01 45° WSW 23:00:32 21° S
ADEOS Rocket 3.9 22:53:14 18° S 22:58:52 58° W 23:06:35 10° NNW
Cosmos 1339 Rocket 4.5 22:54:49 20° S 22:59:17 79° E 23:05:24 10° NNE
ISS -2.4 23:00:48 23° SE 23:00:48 23° SE 23:03:14 10° E
Cosmos 1340 Rocket 2.8 22:58:42 23° SSW 23:01:03 79° WNW 23:05:04 10° NNE
Gbstr 26 Del rocket 3.5 22:59:00 14° SW 23:02:35 46° SSE 23:07:37 10° E
Cosmos 2333 4.4 23:01:03 10° NW 23:06:44 59° WSW 23:10:39 20° S
Meteor 2-3 Rocket 4.1 23:04:49 20° SSE 23:08:34 52° E 23:13:59 10° NNE
Cosmos 1076 Rocket 4.0 23:09:44 22° SSE 23:12:18 50° E 23:16:32 10° NNE
BREEZE-M DEB (TANK) 3.5 23:12:24 26° S 23:13:19 31° SE 23:18:49 10° E
SL-27 R/B 2.5 23:13:18 30° S 23:14:39 54° ESE 23:17:51 10° NNE
SL-16 R/B 4.2 23:11:00 10° ESE 23:16:16 29° NE 23:21:32 10° N
NOSS 3-2 (A) 4.3 23:13:40 19° SSE 23:16:42 31° ESE 23:22:12 10° ENE
Cosmos 44 3.0 23:14:09 19° SSW 23:17:27 74° SE 23:21:53 10° NE
Cosmos 1833 4.1 23:14:26 18° SSW 23:18:45 86° ESE 23:24:24 10° NNE
Cosmos 1782 2.8 23:15:56 10° N 23:19:55 75° ENE 23:22:20 23° SSE
ERS-2 2.1 23:17:19 10° NNE 23:20:55 73° WNW 23:22:56 24° SSW
Cosmos 2237 Rocket 3.0 23:18:09 10° NNW 23:23:41 50° NE 23:29:11 10° SE
Lacrosse 4 Rocket 3.9 23:20:35 10° NNW 23:23:45 21° NNE 23:26:56 10° E
Cosmos 1605 Rocket 4.2 23:17:26 10° NNW 23:23:50 70° W 23:28:27 20° S
ALOS 2 4.2 23:21:37 15° SW 23:24:07 24° W 23:27:43 10° NW
CENTAUR R/B 3.4 23:22:31 19° S 23:26:07 36° ESE 23:32:25 10° NE
COSMOS 2428 2.7 23:24:21 10° NW 23:30:05 74° WSW 23:34:37 17° SSE
SL-16 R/B 4.2 23:29:00 10° WNW 23:31:41 14° W 23:34:22 10° SW
NOSS 8 (A) 4.3 23:29:31 17° SW 23:31:52 71° NW 23:34:44 10° NE
Cosmos 2219 Rocket 2.5 23:27:22 10° NW 23:32:53 53° WSW 23:36:40 20° S
Cosmos 2297 Rocket 4.0 23:29:19 11° SE 23:33:04 20° E 23:36:59 10° NE
Cosmos 2058 4.4 23:29:58 13° SW 23:33:10 30° WNW 23:36:54 10° N
Cosmos 2151 3.2 23:31:03 22° S 23:33:39 63° E 23:37:56 10° NNE
USA 267 3.2 23:29:11 10° ENE 23:35:46 86° SSE 23:42:21 10° WSW
Cosmos 1953 Rocket 4.5 23:33:03 16° SW 23:36:13 41° WNW 23:40:25 10° N
SJ 16-02 3.7 23:37:07 10° WNW 23:38:19 11° W 23:39:31 10° WSW
ATLAS 5 CENTAUR R/B 3.5 23:37:33 10° W 23:41:12 31° NNW 23:45:26 10° NE
Cosmos 2322 4.1 23:36:33 10° NW 23:42:00 49° WSW 23:45:44 20° S
Cosmos 1898 Rocket 3.5 23:38:10 10° NNW 23:43:19 66° WSW 23:47:02 19° S
SL-4 R/B 1.7 23:40:34 10° WSW 23:44:04 60° SSE 23:47:49 10° E
Cosmos 1151 Rocket 4.0 23:40:13 10° N 23:44:26 43° ENE 23:48:25 11° SE
Cosmos 1937 Rocket 3.5 23:43:15 10° NNW 23:48:33 79° WSW 23:52:45 16° SSE
Cosmos 2221 3.8 23:46:00 10° NNW 23:49:45 28° W 23:52:14 17° SW
COSMOS 2455 2.9 23:45:07 10° NW 23:51:11 83° NE 23:57:13 10° SE
PSLV R/B 4.2 23:47:30 10° N 23:52:11 57° WNW 23:55:36 18° SW
Cosmos 1184 Rocket 3.0 23:52:54 10° N 23:55:55 59° ENE 23:57:49 20° SSE
